Location: Blangy-Tronville
(49.8790°N, 2.4226°E)
Time: 06:38:20
(UTC+00:00)

BlueWalker 3 - Pass Details

Date: 18 November 2025
Orbit: 455 x 462 km, 53.2° (Epoch: 06 December)

Event Time Altitude Azimuth Distance (km) Brightness Sun altitude
Rises 18:12:11 0° 201° (SSW) 2,476 5.8 -20.5°
Reaches altitude 10° 18:14:44 10° 183° (S) 1,607 4.6 -20.9°
Enters shadow 18:15:35 14° 172° (S) 1,384 4.1 -21.1°
